Starlink 11708

operational
NORAD ID: 64238 Int'l Des: 2025-119 Owner: SPXS Country: US Constellation: starlink
LEOCIRCULAR

Starlink 11708について

説明を読み込み中...

リアルタイム位置

3D地球を読み込み中...

次回通過

高度履歴

Altitude vs Time

uPlot chart will show altitude changes over time

軌道要素

1 64238U 25119F 26095.22271613 .00415734 00000-0 30783-2 0 9994
2 64238 42.9994 49.5422 0001977 318.5810 41.4908 15.70885195 49411
Epoch: Apr 5, 2026 • Age: 16 hours

現在のステータス

高度 355.8 km
速度 7.70 km/s
衛星直下点 23.22°N, 45.91°E
打ち上げ日 Jun 3, 2025
運用期間 0.8 years
タイプ internet

技術仕様

分類 Payload
質量 960.00 kg
乾燥質量 910.00 kg
総質量 960.00 kg
長さ 0.30 m
直径 4.10 m
スパン 29.00 m
形状 Box + pan
製造者 SPXS
バスタイプ Starlink V2MD
フェーズステータス In Orbit
所有者/国 SPXS/US

大規模コンステレーション

Loading constellations...